#datetime,building,power
2023-07-07T00:00:00,mnr,4.88
2023-07-07T00:01:00,mnr,4.50
2023-07-07T00:02:00,mnr,4.54
2023-07-07T00:03:00,mnr,4.21
2023-07-07T00:04:00,mnr,4.14
2023-07-07T00:05:00,mnr,4.01
2023-07-07T00:06:00,mnr,3.83
2023-07-07T00:07:00,mnr,3.93
2023-07-07T00:08:00,mnr,4.04
2023-07-07T00:09:00,mnr,4.02
2023-07-07T00:10:00,mnr,3.91
2023-07-07T00:11:00,mnr,3.89
2023-07-07T00:12:00,mnr,3.90
2023-07-07T00:13:00,mnr,3.83
2023-07-07T00:14:00,mnr,3.85
2023-07-07T00:15:00,mnr,3.75
2023-07-07T00:16:00,mnr,3.86
2023-07-07T00:17:00,mnr,3.99
2023-07-07T00:18:00,mnr,4.03
2023-07-07T00:19:00,mnr,4.05
2023-07-07T00:20:00,mnr,3.94
2023-07-07T00:21:00,mnr,5.39
2023-07-07T00:22:00,mnr,4.06
2023-07-07T00:23:00,mnr,4.04
2023-07-07T00:24:00,mnr,4.11
2023-07-07T00:25:00,mnr,4.54
2023-07-07T00:26:00,mnr,4.32
2023-07-07T00:27:00,mnr,4.65
2023-07-07T00:28:00,mnr,3.98
2023-07-07T00:29:00,mnr,4.07
2023-07-07T00:30:00,mnr,4.29
2023-07-07T00:31:00,mnr,4.06
2023-07-07T00:32:00,mnr,4.12
2023-07-07T00:33:00,mnr,3.94
2023-07-07T00:34:00,mnr,3.95
2023-07-07T00:35:00,mnr,3.94
2023-07-07T00:36:00,mnr,3.87
2023-07-07T00:37:00,mnr,3.92
2023-07-07T00:38:00,mnr,4.58
2023-07-07T00:39:00,mnr,3.89
2023-07-07T00:40:00,mnr,3.88
2023-07-07T00:41:00,mnr,3.94
2023-07-07T00:42:00,mnr,3.97
2023-07-07T00:43:00,mnr,3.95
2023-07-07T00:44:00,mnr,3.91
2023-07-07T00:45:00,mnr,3.93
2023-07-07T00:46:00,mnr,4.09
2023-07-07T00:47:00,mnr,4.08
2023-07-07T00:48:00,mnr,4.15
2023-07-07T00:49:00,mnr,4.41
2023-07-07T00:50:00,mnr,4.42
2023-07-07T00:51:00,mnr,4.39
2023-07-07T00:52:00,mnr,4.44
2023-07-07T00:53:00,mnr,4.53
2023-07-07T00:54:00,mnr,4.54
2023-07-07T00:55:00,mnr,4.46
2023-07-07T00:56:00,mnr,4.64
2023-07-07T00:57:00,mnr,4.66
2023-07-07T00:58:00,mnr,5.38
2023-07-07T00:59:00,mnr,4.65
2023-07-07T01:00:00,mnr,5.32
2023-07-07T01:01:00,mnr,5.82
2023-07-07T01:02:00,mnr,5.57
2023-07-07T01:03:00,mnr,5.45
2023-07-07T01:04:00,mnr,5.46
2023-07-07T01:05:00,mnr,5.45
2023-07-07T01:06:00,mnr,5.94
2023-07-07T01:07:00,mnr,5.36
2023-07-07T01:08:00,mnr,5.36
2023-07-07T01:09:00,mnr,5.33
2023-07-07T01:10:00,mnr,5.03
2023-07-07T01:11:00,mnr,5.04
2023-07-07T01:12:00,mnr,5.03
2023-07-07T01:13:00,mnr,4.57
2023-07-07T01:14:00,mnr,4.54
2023-07-07T01:15:00,mnr,4.50
2023-07-07T01:16:00,mnr,4.19
2023-07-07T01:17:00,mnr,4.15
2023-07-07T01:18:00,mnr,4.17
2023-07-07T01:19:00,mnr,4.16
2023-07-07T01:20:00,mnr,4.12
2023-07-07T01:21:00,mnr,4.27
2023-07-07T01:22:00,mnr,4.18
2023-07-07T01:23:00,mnr,4.19
2023-07-07T01:24:00,mnr,4.12
2023-07-07T01:25:00,mnr,4.24
2023-07-07T01:26:00,mnr,3.74
2023-07-07T01:27:00,mnr,3.78
2023-07-07T01:28:00,mnr,3.77
2023-07-07T01:29:00,mnr,3.83
2023-07-07T01:30:00,mnr,3.97
2023-07-07T01:31:00,mnr,3.83
2023-07-07T01:32:00,mnr,3.78
2023-07-07T01:33:00,mnr,3.80
2023-07-07T01:34:00,mnr,3.78
2023-07-07T01:35:00,mnr,3.82
2023-07-07T01:36:00,mnr,4.04
2023-07-07T01:37:00,mnr,3.85
2023-07-07T01:38:00,mnr,3.80
2023-07-07T01:39:00,mnr,3.82
2023-07-07T01:40:00,mnr,3.79
2023-07-07T01:41:00,mnr,3.90
2023-07-07T01:42:00,mnr,3.86
2023-07-07T01:43:00,mnr,3.82
2023-07-07T01:44:00,mnr,4.19
2023-07-07T01:45:00,mnr,3.96
2023-07-07T01:46:00,mnr,3.90
2023-07-07T01:47:00,mnr,3.92
2023-07-07T01:48:00,mnr,4.00
2023-07-07T01:49:00,mnr,3.99
2023-07-07T01:50:00,mnr,3.94
2023-07-07T01:51:00,mnr,4.65
2023-07-07T01:52:00,mnr,3.90
2023-07-07T01:53:00,mnr,3.96
2023-07-07T01:54:00,mnr,3.99
2023-07-07T01:55:00,mnr,3.97
2023-07-07T01:56:00,mnr,3.98
2023-07-07T01:57:00,mnr,3.92
2023-07-07T01:58:00,mnr,3.95
2023-07-07T01:59:00,mnr,3.95
2023-07-07T02:00:00,mnr,4.44
2023-07-07T02:01:00,mnr,3.87
2023-07-07T02:02:00,mnr,3.83
2023-07-07T02:03:00,mnr,3.67
2023-07-07T02:04:00,mnr,3.68
2023-07-07T02:05:00,mnr,3.74
2023-07-07T02:06:00,mnr,4.01
2023-07-07T02:07:00,mnr,3.71
2023-07-07T02:08:00,mnr,3.70
2023-07-07T02:09:00,mnr,3.71
2023-07-07T02:10:00,mnr,3.69
2023-07-07T02:11:00,mnr,3.90
2023-07-07T02:12:00,mnr,3.62
2023-07-07T02:13:00,mnr,5.46
2023-07-07T02:14:00,mnr,4.09
2023-07-07T02:15:00,mnr,4.10
2023-07-07T02:16:00,mnr,4.30
2023-07-07T02:17:00,mnr,4.34
2023-07-07T02:18:00,mnr,4.36
2023-07-07T02:19:00,mnr,4.34
2023-07-07T02:20:00,mnr,4.33
2023-07-07T02:21:00,mnr,4.30
2023-07-07T02:22:00,mnr,5.09
2023-07-07T02:23:00,mnr,4.31
2023-07-07T02:24:00,mnr,4.34
2023-07-07T02:25:00,mnr,4.31
2023-07-07T02:26:00,mnr,4.38
2023-07-07T02:27:00,mnr,4.46
2023-07-07T02:28:00,mnr,4.78
2023-07-07T02:29:00,mnr,4.53
2023-07-07T02:30:00,mnr,4.71
2023-07-07T02:31:00,mnr,4.52
2023-07-07T02:32:00,mnr,4.57
2023-07-07T02:33:00,mnr,4.51
2023-07-07T02:34:00,mnr,4.50
2023-07-07T02:35:00,mnr,4.65
2023-07-07T02:36:00,mnr,4.58
2023-07-07T02:37:00,mnr,5.63
2023-07-07T02:38:00,mnr,4.58
2023-07-07T02:39:00,mnr,4.56
2023-07-07T02:40:00,mnr,4.58
2023-07-07T02:41:00,mnr,4.59
2023-07-07T02:42:00,mnr,4.59
2023-07-07T02:43:00,mnr,4.62
2023-07-07T02:44:00,mnr,4.50
2023-07-07T02:45:00,mnr,4.49
2023-07-07T02:46:00,mnr,4.54
2023-07-07T02:47:00,mnr,4.50
2023-07-07T02:48:00,mnr,5.43
2023-07-07T02:49:00,mnr,4.30
2023-07-07T02:50:00,mnr,4.38
2023-07-07T02:51:00,mnr,4.37
2023-07-07T02:52:00,mnr,3.80
2023-07-07T02:53:00,mnr,3.69
2023-07-07T02:54:00,mnr,3.75
2023-07-07T02:55:00,mnr,3.85
2023-07-07T02:56:00,mnr,4.54
2023-07-07T02:57:00,mnr,3.91
2023-07-07T02:58:00,mnr,3.95
2023-07-07T02:59:00,mnr,3.85
2023-07-07T03:00:00,mnr,3.86
2023-07-07T03:01:00,mnr,3.90
2023-07-07T03:02:00,mnr,3.95
2023-07-07T03:03:00,mnr,3.92
2023-07-07T03:04:00,mnr,3.99
2023-07-07T03:05:00,mnr,3.88
2023-07-07T03:06:00,mnr,3.92
2023-07-07T03:07:00,mnr,3.88
2023-07-07T03:08:00,mnr,3.92
2023-07-07T03:09:00,mnr,3.95
2023-07-07T03:10:00,mnr,3.92
2023-07-07T03:11:00,mnr,4.01
2023-07-07T03:12:00,mnr,4.25
2023-07-07T03:13:00,mnr,4.01
2023-07-07T03:14:00,mnr,4.01
2023-07-07T03:15:00,mnr,3.98
2023-07-07T03:16:00,mnr,3.96
2023-07-07T03:17:00,mnr,3.84
2023-07-07T03:18:00,mnr,3.79
2023-07-07T03:19:00,mnr,3.79
2023-07-07T03:20:00,mnr,3.81
2023-07-07T03:21:00,mnr,3.70
2023-07-07T03:22:00,mnr,3.69
2023-07-07T03:23:00,mnr,3.68
2023-07-07T03:24:00,mnr,3.79
2023-07-07T03:25:00,mnr,3.78
2023-07-07T03:26:00,mnr,3.74
2023-07-07T03:27:00,mnr,3.80
2023-07-07T03:28:00,mnr,3.66
2023-07-07T03:29:00,mnr,4.41
2023-07-07T03:30:00,mnr,3.78
2023-07-07T03:31:00,mnr,3.78
2023-07-07T03:32:00,mnr,3.76
2023-07-07T03:33:00,mnr,3.86
2023-07-07T03:34:00,mnr,3.87
2023-07-07T03:35:00,mnr,3.83
2023-07-07T03:36:00,mnr,3.69
2023-07-07T03:37:00,mnr,3.78
2023-07-07T03:38:00,mnr,3.63
2023-07-07T03:39:00,mnr,4.01
2023-07-07T03:40:00,mnr,4.08
2023-07-07T03:41:00,mnr,4.07
2023-07-07T03:42:00,mnr,4.10
2023-07-07T03:43:00,mnr,4.11
2023-07-07T03:44:00,mnr,4.04
2023-07-07T03:45:00,mnr,4.03
2023-07-07T03:46:00,mnr,4.10
2023-07-07T03:47:00,mnr,4.85
2023-07-07T03:48:00,mnr,4.12
2023-07-07T03:49:00,mnr,4.14
2023-07-07T03:50:00,mnr,4.10
2023-07-07T03:51:00,mnr,4.12
2023-07-07T03:52:00,mnr,4.18
2023-07-07T03:53:00,mnr,4.14
2023-07-07T03:54:00,mnr,4.20
2023-07-07T03:55:00,mnr,4.20
2023-07-07T03:56:00,mnr,4.53
2023-07-07T03:57:00,mnr,4.38
2023-07-07T03:58:00,mnr,4.30
2023-07-07T03:59:00,mnr,4.30
2023-07-07T04:00:00,mnr,4.30
2023-07-07T04:01:00,mnr,4.34
2023-07-07T04:02:00,mnr,4.28
2023-07-07T04:03:00,mnr,4.37
2023-07-07T04:04:00,mnr,4.41
2023-07-07T04:05:00,mnr,4.34
2023-07-07T04:06:00,mnr,4.41
2023-07-07T04:07:00,mnr,4.38
2023-07-07T04:08:00,mnr,4.42
2023-07-07T04:09:00,mnr,4.45
2023-07-07T04:10:00,mnr,4.45
2023-07-07T04:11:00,mnr,4.47
2023-07-07T04:12:00,mnr,4.31
2023-07-07T04:13:00,mnr,4.41
2023-07-07T04:14:00,mnr,4.37
2023-07-07T04:15:00,mnr,4.37
2023-07-07T04:16:00,mnr,3.93
2023-07-07T04:17:00,mnr,3.87
2023-07-07T04:18:00,mnr,3.91
2023-07-07T04:19:00,mnr,3.91
2023-07-07T04:20:00,mnr,3.88
2023-07-07T04:21:00,mnr,3.90
2023-07-07T04:22:00,mnr,3.89
2023-07-07T04:23:00,mnr,3.88
2023-07-07T04:24:00,mnr,3.93
2023-07-07T04:25:00,mnr,3.91
2023-07-07T04:26:00,mnr,3.82
2023-07-07T04:27:00,mnr,3.78
2023-07-07T04:28:00,mnr,3.80
2023-07-07T04:29:00,mnr,3.84
2023-07-07T04:30:00,mnr,3.80
2023-07-07T04:31:00,mnr,3.77
2023-07-07T04:32:00,mnr,3.67
2023-07-07T04:33:00,mnr,4.33
2023-07-07T04:34:00,mnr,4.32
2023-07-07T04:35:00,mnr,5.43
2023-07-07T04:36:00,mnr,6.20
2023-07-07T04:37:00,mnr,6.25
2023-07-07T04:38:00,mnr,6.26
2023-07-07T04:39:00,mnr,6.37
2023-07-07T04:40:00,mnr,6.61
2023-07-07T04:41:00,mnr,6.53
2023-07-07T04:42:00,mnr,6.48
2023-07-07T04:43:00,mnr,6.58
2023-07-07T04:44:00,mnr,6.56
2023-07-07T04:45:00,mnr,6.72
2023-07-07T04:46:00,mnr,6.64
2023-07-07T04:47:00,mnr,6.94
2023-07-07T04:48:00,mnr,6.99
2023-07-07T04:49:00,mnr,6.82
2023-07-07T04:50:00,mnr,6.75
2023-07-07T04:51:00,mnr,7.53
2023-07-07T04:52:00,mnr,7.35
2023-07-07T04:53:00,mnr,7.11
2023-07-07T04:54:00,mnr,8.08
2023-07-07T04:55:00,mnr,8.04
2023-07-07T04:56:00,mnr,6.78
2023-07-07T04:57:00,mnr,7.78
2023-07-07T04:58:00,mnr,6.50
2023-07-07T04:59:00,mnr,7.55
2023-07-07T05:00:00,mnr,7.65
2023-07-07T05:01:00,mnr,7.63
2023-07-07T05:02:00,mnr,7.80
2023-07-07T05:03:00,mnr,7.54
2023-07-07T05:04:00,mnr,7.56
2023-07-07T05:05:00,mnr,7.50
2023-07-07T05:06:00,mnr,7.41
2023-07-07T05:07:00,mnr,7.76
2023-07-07T05:08:00,mnr,8.64
2023-07-07T05:09:00,mnr,8.00
2023-07-07T05:10:00,mnr,7.94
2023-07-07T05:11:00,mnr,7.20
2023-07-07T05:12:00,mnr,7.17
2023-07-07T05:13:00,mnr,6.79
2023-07-07T05:14:00,mnr,7.04
2023-07-07T05:15:00,mnr,7.06
2023-07-07T05:16:00,mnr,6.95
2023-07-07T05:17:00,mnr,6.97
2023-07-07T05:18:00,mnr,8.27
2023-07-07T05:19:00,mnr,7.01
2023-07-07T05:20:00,mnr,6.54
2023-07-07T05:21:00,mnr,6.53
2023-07-07T05:22:00,mnr,6.65
2023-07-07T05:23:00,mnr,6.61
2023-07-07T05:24:00,mnr,7.46
2023-07-07T05:25:00,mnr,7.23
2023-07-07T05:26:00,mnr,6.71
2023-07-07T05:27:00,mnr,6.70
2023-07-07T05:28:00,mnr,6.73
2023-07-07T05:29:00,mnr,6.61
2023-07-07T05:30:00,mnr,6.60
2023-07-07T05:31:00,mnr,5.94
2023-07-07T05:32:00,mnr,5.94
2023-07-07T05:33:00,mnr,5.92
2023-07-07T05:34:00,mnr,5.94
2023-07-07T05:35:00,mnr,5.96
2023-07-07T05:36:00,mnr,5.45
2023-07-07T05:37:00,mnr,5.50
2023-07-07T05:38:00,mnr,5.18
2023-07-07T05:39:00,mnr,4.87
2023-07-07T05:40:00,mnr,4.85
2023-07-07T05:41:00,mnr,4.86
2023-07-07T05:42:00,mnr,4.25
2023-07-07T05:43:00,mnr,4.18
2023-07-07T05:44:00,mnr,4.19
2023-07-07T05:45:00,mnr,3.88
2023-07-07T05:46:00,mnr,4.19
2023-07-07T05:47:00,mnr,4.00
2023-07-07T05:48:00,mnr,3.88
2023-07-07T05:49:00,mnr,3.79
2023-07-07T05:50:00,mnr,3.77
2023-07-07T05:51:00,mnr,3.85
2023-07-07T05:52:00,mnr,3.87
2023-07-07T05:53:00,mnr,3.82
2023-07-07T05:54:00,mnr,3.81
2023-07-07T05:55:00,mnr,3.93
2023-07-07T05:56:00,mnr,3.95
2023-07-07T05:57:00,mnr,3.68
2023-07-07T05:58:00,mnr,3.71
2023-07-07T05:59:00,mnr,3.67
2023-07-07T06:00:00,mnr,3.64
2023-07-07T06:01:00,mnr,4.41
2023-07-07T06:02:00,mnr,5.12
2023-07-07T06:03:00,mnr,6.51
2023-07-07T06:04:00,mnr,9.01
2023-07-07T06:05:00,mnr,10.31
2023-07-07T06:06:00,mnr,12.39
2023-07-07T06:07:00,mnr,15.03
2023-07-07T06:08:00,mnr,13.59
2023-07-07T06:09:00,mnr,12.83
2023-07-07T06:10:00,mnr,12.62
2023-07-07T06:11:00,mnr,12.40
2023-07-07T06:12:00,mnr,12.45
2023-07-07T06:13:00,mnr,12.52
2023-07-07T06:14:00,mnr,12.41
2023-07-07T06:15:00,mnr,22.27
2023-07-07T06:16:00,mnr,13.30
2023-07-07T06:17:00,mnr,13.19
2023-07-07T06:18:00,mnr,13.17
2023-07-07T06:19:00,mnr,12.54
2023-07-07T06:20:00,mnr,13.35
2023-07-07T06:21:00,mnr,13.40
2023-07-07T06:22:00,mnr,13.21
2023-07-07T06:23:00,mnr,13.29
2023-07-07T06:24:00,mnr,13.11
2023-07-07T06:25:00,mnr,13.12
2023-07-07T06:26:00,mnr,13.25
2023-07-07T06:27:00,mnr,12.97
2023-07-07T06:28:00,mnr,12.97
2023-07-07T06:29:00,mnr,12.96
2023-07-07T06:30:00,mnr,12.35
2023-07-07T06:31:00,mnr,12.92
2023-07-07T06:32:00,mnr,13.06
2023-07-07T06:33:00,mnr,13.11
2023-07-07T06:34:00,mnr,15.03
2023-07-07T06:35:00,mnr,14.11
2023-07-07T06:36:00,mnr,13.95
2023-07-07T06:37:00,mnr,13.89
2023-07-07T06:38:00,mnr,13.87
2023-07-07T06:39:00,mnr,13.90
2023-07-07T06:40:00,mnr,13.67
2023-07-07T06:41:00,mnr,13.81
2023-07-07T06:42:00,mnr,17.27
2023-07-07T06:43:00,mnr,16.36
2023-07-07T06:44:00,mnr,15.78
2023-07-07T06:45:00,mnr,14.93
2023-07-07T06:46:00,mnr,15.58
2023-07-07T06:47:00,mnr,15.64
2023-07-07T06:48:00,mnr,15.77
2023-07-07T06:49:00,mnr,15.91
2023-07-07T06:50:00,mnr,15.76
2023-07-07T06:51:00,mnr,15.67
2023-07-07T06:52:00,mnr,15.58
2023-07-07T06:53:00,mnr,16.18
2023-07-07T06:54:00,mnr,15.64
2023-07-07T06:55:00,mnr,15.09
2023-07-07T06:56:00,mnr,15.06
2023-07-07T06:57:00,mnr,14.95
2023-07-07T06:58:00,mnr,14.84
2023-07-07T06:59:00,mnr,12.90
2023-07-07T07:00:00,mnr,12.80
2023-07-07T07:01:00,mnr,12.87
2023-07-07T07:02:00,mnr,13.46
2023-07-07T07:03:00,mnr,13.44
2023-07-07T07:04:00,mnr,13.79
2023-07-07T07:05:00,mnr,14.12
2023-07-07T07:06:00,mnr,13.49
2023-07-07T07:07:00,mnr,13.39
2023-07-07T07:08:00,mnr,13.46
2023-07-07T07:09:00,mnr,14.45
2023-07-07T07:10:00,mnr,13.41
2023-07-07T07:11:00,mnr,13.27
2023-07-07T07:12:00,mnr,13.33
2023-07-07T07:13:00,mnr,13.56
2023-07-07T07:14:00,mnr,12.76
2023-07-07T07:15:00,mnr,12.68
2023-07-07T07:16:00,mnr,12.69
2023-07-07T07:17:00,mnr,13.08
2023-07-07T07:18:00,mnr,11.64
2023-07-07T07:19:00,mnr,11.66
2023-07-07T07:20:00,mnr,11.56
2023-07-07T07:21:00,mnr,11.36
2023-07-07T07:22:00,mnr,11.15
2023-07-07T07:23:00,mnr,10.55
2023-07-07T07:24:00,mnr,10.22
2023-07-07T07:25:00,mnr,12.33
2023-07-07T07:26:00,mnr,11.96
2023-07-07T07:27:00,mnr,11.71
2023-07-07T07:28:00,mnr,11.62
2023-07-07T07:29:00,mnr,12.33
2023-07-07T07:30:00,mnr,12.47
2023-07-07T07:31:00,mnr,13.22
2023-07-07T07:32:00,mnr,12.68
2023-07-07T07:33:00,mnr,12.94
2023-07-07T07:34:00,mnr,10.81
2023-07-07T07:35:00,mnr,10.76
2023-07-07T07:36:00,mnr,10.78
2023-07-07T07:37:00,mnr,10.86
2023-07-07T07:38:00,mnr,10.81
2023-07-07T07:39:00,mnr,11.68
2023-07-07T07:40:00,mnr,11.77
2023-07-07T07:41:00,mnr,11.77
2023-07-07T07:42:00,mnr,11.87
2023-07-07T07:43:00,mnr,11.76
2023-07-07T07:44:00,mnr,12.07
2023-07-07T07:45:00,mnr,11.83
2023-07-07T07:46:00,mnr,11.88
2023-07-07T07:47:00,mnr,12.24
2023-07-07T07:48:00,mnr,11.95
2023-07-07T07:49:00,mnr,12.65
2023-07-07T07:50:00,mnr,12.34
2023-07-07T07:51:00,mnr,12.59
2023-07-07T07:52:00,mnr,12.46
2023-07-07T07:53:00,mnr,12.35
2023-07-07T07:54:00,mnr,12.33
2023-07-07T07:55:00,mnr,12.28
2023-07-07T07:56:00,mnr,12.71
2023-07-07T07:57:00,mnr,12.13
2023-07-07T07:58:00,mnr,12.05
2023-07-07T07:59:00,mnr,12.16
2023-07-07T08:00:00,mnr,14.47
2023-07-07T08:01:00,mnr,14.85
2023-07-07T08:02:00,mnr,16.56
2023-07-07T08:03:00,mnr,18.48
2023-07-07T08:04:00,mnr,17.58
2023-07-07T08:05:00,mnr,16.85
2023-07-07T08:06:00,mnr,16.87
2023-07-07T08:07:00,mnr,17.07
2023-07-07T08:08:00,mnr,17.38
2023-07-07T08:09:00,mnr,16.59
2023-07-07T08:10:00,mnr,16.92
2023-07-07T08:11:00,mnr,16.68
2023-07-07T08:12:00,mnr,17.46
2023-07-07T08:13:00,mnr,18.85
2023-07-07T08:14:00,mnr,21.37
2023-07-07T08:15:00,mnr,22.65
2023-07-07T08:16:00,mnr,23.52
2023-07-07T08:17:00,mnr,24.02
2023-07-07T08:18:00,mnr,24.02
2023-07-07T08:19:00,mnr,24.32
2023-07-07T08:20:00,mnr,25.84
2023-07-07T08:21:00,mnr,22.26
2023-07-07T08:22:00,mnr,19.23
2023-07-07T08:23:00,mnr,19.52
2023-07-07T08:24:00,mnr,28.64
2023-07-07T08:25:00,mnr,19.68
2023-07-07T08:26:00,mnr,20.55
2023-07-07T08:27:00,mnr,20.13
2023-07-07T08:28:00,mnr,20.24
2023-07-07T08:29:00,mnr,20.15
2023-07-07T08:30:00,mnr,19.99
2023-07-07T08:31:00,mnr,18.96
2023-07-07T08:32:00,mnr,18.87
2023-07-07T08:33:00,mnr,19.99
2023-07-07T08:34:00,mnr,22.24
2023-07-07T08:35:00,mnr,19.38
2023-07-07T08:36:00,mnr,18.43
2023-07-07T08:37:00,mnr,18.67
2023-07-07T08:38:00,mnr,18.84
2023-07-07T08:39:00,mnr,17.76
2023-07-07T08:40:00,mnr,18.65
2023-07-07T08:41:00,mnr,19.45
2023-07-07T08:42:00,mnr,19.59
2023-07-07T08:43:00,mnr,19.93
2023-07-07T08:44:00,mnr,20.37
2023-07-07T08:45:00,mnr,22.17
2023-07-07T08:46:00,mnr,23.56
2023-07-07T08:47:00,mnr,24.63
2023-07-07T08:48:00,mnr,24.61
2023-07-07T08:49:00,mnr,23.30
2023-07-07T08:50:00,mnr,23.44
2023-07-07T08:51:00,mnr,24.16
2023-07-07T08:52:00,mnr,25.01
2023-07-07T08:53:00,mnr,24.75
2023-07-07T08:54:00,mnr,26.01
2023-07-07T08:55:00,mnr,25.32
2023-07-07T08:56:00,mnr,25.47
2023-07-07T08:57:00,mnr,25.36
2023-07-07T08:58:00,mnr,23.76
2023-07-07T08:59:00,mnr,21.40
2023-07-07T09:00:00,mnr,21.00
2023-07-07T09:01:00,mnr,21.48
2023-07-07T09:02:00,mnr,21.29
2023-07-07T09:03:00,mnr,21.96
2023-07-07T09:04:00,mnr,23.23
2023-07-07T09:05:00,mnr,25.30
2023-07-07T09:06:00,mnr,25.78
2023-07-07T09:07:00,mnr,27.38
2023-07-07T09:08:00,mnr,27.12
2023-07-07T09:09:00,mnr,27.17
2023-07-07T09:10:00,mnr,26.20
2023-07-07T09:11:00,mnr,28.95
2023-07-07T09:12:00,mnr,28.02
2023-07-07T09:13:00,mnr,28.13
2023-07-07T09:14:00,mnr,28.75
2023-07-07T09:15:00,mnr,30.72
2023-07-07T09:16:00,mnr,34.19
2023-07-07T09:17:00,mnr,37.38
2023-07-07T09:18:00,mnr,40.02
2023-07-07T09:19:00,mnr,37.83
2023-07-07T09:20:00,mnr,37.68
2023-07-07T09:21:00,mnr,37.94
2023-07-07T09:22:00,mnr,28.89
2023-07-07T09:23:00,mnr,30.66
2023-07-07T09:24:00,mnr,31.50
2023-07-07T09:25:00,mnr,28.14
2023-07-07T09:26:00,mnr,28.25
2023-07-07T09:27:00,mnr,28.74
2023-07-07T09:28:00,mnr,29.68
2023-07-07T09:29:00,mnr,32.31
2023-07-07T09:30:00,mnr,32.76
2023-07-07T09:31:00,mnr,33.80
2023-07-07T09:32:00,mnr,34.18
2023-07-07T09:33:00,mnr,34.85
2023-07-07T09:34:00,mnr,35.80
2023-07-07T09:35:00,mnr,33.46
2023-07-07T09:36:00,mnr,32.74
2023-07-07T09:37:00,mnr,33.21
2023-07-07T09:38:00,mnr,34.20
2023-07-07T09:39:00,mnr,45.74
2023-07-07T09:40:00,mnr,44.97
2023-07-07T09:41:00,mnr,35.97
2023-07-07T09:42:00,mnr,36.17
2023-07-07T09:43:00,mnr,36.92
2023-07-07T09:44:00,mnr,38.68
2023-07-07T09:45:00,mnr,41.05
2023-07-07T09:46:00,mnr,44.13
2023-07-07T09:47:00,mnr,45.72
2023-07-07T09:48:00,mnr,46.18
2023-07-07T09:49:00,mnr,44.86
2023-07-07T09:50:00,mnr,45.07
2023-07-07T09:51:00,mnr,45.43
2023-07-07T09:52:00,mnr,45.58
2023-07-07T09:53:00,mnr,46.49
2023-07-07T09:54:00,mnr,46.55
2023-07-07T09:55:00,mnr,46.75
2023-07-07T09:56:00,mnr,46.75
2023-07-07T09:57:00,mnr,46.75
2023-07-07T09:58:00,mnr,46.57
2023-07-07T09:59:00,mnr,47.20
2023-07-07T10:00:00,mnr,47.65
2023-07-07T10:01:00,mnr,48.80
2023-07-07T10:02:00,mnr,49.47
2023-07-07T10:03:00,mnr,50.42
2023-07-07T10:04:00,mnr,51.28
2023-07-07T10:05:00,mnr,51.88
2023-07-07T10:06:00,mnr,48.49
2023-07-07T10:07:00,mnr,46.05
2023-07-07T10:08:00,mnr,45.92
2023-07-07T10:09:00,mnr,43.12
2023-07-07T10:10:00,mnr,42.05
2023-07-07T10:11:00,mnr,50.14
2023-07-07T10:12:00,mnr,37.66
2023-07-07T10:13:00,mnr,35.92
2023-07-07T10:14:00,mnr,36.02
2023-07-07T10:15:00,mnr,36.20
2023-07-07T10:16:00,mnr,36.35
2023-07-07T10:17:00,mnr,36.66
2023-07-07T10:18:00,mnr,37.77
2023-07-07T10:19:00,mnr,35.02
2023-07-07T10:20:00,mnr,34.46
2023-07-07T10:21:00,mnr,34.10
2023-07-07T10:22:00,mnr,33.71
2023-07-07T10:23:00,mnr,33.78
2023-07-07T10:24:00,mnr,34.71
2023-07-07T10:25:00,mnr,36.82
2023-07-07T10:26:00,mnr,46.34
2023-07-07T10:27:00,mnr,39.73
2023-07-07T10:28:00,mnr,41.10
2023-07-07T10:29:00,mnr,42.68
2023-07-07T10:30:00,mnr,44.59
2023-07-07T10:31:00,mnr,47.79
2023-07-07T10:32:00,mnr,49.24
2023-07-07T10:33:00,mnr,50.51
2023-07-07T10:34:00,mnr,48.07
2023-07-07T10:35:00,mnr,46.62
2023-07-07T10:36:00,mnr,47.18
2023-07-07T10:37:00,mnr,47.13
2023-07-07T10:38:00,mnr,47.03
2023-07-07T10:39:00,mnr,46.23
2023-07-07T10:40:00,mnr,45.04
2023-07-07T10:41:00,mnr,45.58
2023-07-07T10:42:00,mnr,44.35
2023-07-07T10:43:00,mnr,49.24
2023-07-07T10:44:00,mnr,39.76
2023-07-07T10:45:00,mnr,39.63
2023-07-07T10:46:00,mnr,40.10
2023-07-07T10:47:00,mnr,39.95
2023-07-07T10:48:00,mnr,39.90
2023-07-07T10:49:00,mnr,39.35
2023-07-07T10:50:00,mnr,39.07
2023-07-07T10:51:00,mnr,38.53
2023-07-07T10:52:00,mnr,38.33
2023-07-07T10:53:00,mnr,38.19
2023-07-07T10:54:00,mnr,38.84
2023-07-07T10:55:00,mnr,38.68
2023-07-07T10:56:00,mnr,36.31
2023-07-07T10:57:00,mnr,35.45
2023-07-07T10:58:00,mnr,33.10
2023-07-07T10:59:00,mnr,33.20
2023-07-07T11:00:00,mnr,34.45
2023-07-07T11:01:00,mnr,35.26
2023-07-07T11:02:00,mnr,36.20
2023-07-07T11:03:00,mnr,37.76
2023-07-07T11:04:00,mnr,40.48
2023-07-07T11:05:00,mnr,44.99
2023-07-07T11:06:00,mnr,49.10
2023-07-07T11:07:00,mnr,48.59
2023-07-07T11:08:00,mnr,49.85
2023-07-07T11:09:00,mnr,52.75
2023-07-07T11:10:00,mnr,56.66
2023-07-07T11:11:00,mnr,57.71
2023-07-07T11:12:00,mnr,53.08
2023-07-07T11:13:00,mnr,52.60
2023-07-07T11:14:00,mnr,52.91
2023-07-07T11:15:00,mnr,51.88
2023-07-07T11:16:00,mnr,52.33
2023-07-07T11:17:00,mnr,52.62
2023-07-07T11:18:00,mnr,52.22
2023-07-07T11:19:00,mnr,48.29
2023-07-07T11:20:00,mnr,49.61
2023-07-07T11:21:00,mnr,57.49
2023-07-07T11:22:00,mnr,47.59
2023-07-07T11:23:00,mnr,47.75
2023-07-07T11:24:00,mnr,47.62
2023-07-07T11:25:00,mnr,45.54
2023-07-07T11:26:00,mnr,45.83
2023-07-07T11:27:00,mnr,43.79
2023-07-07T11:28:00,mnr,36.83
2023-07-07T11:29:00,mnr,34.18
2023-07-07T11:30:00,mnr,33.71
2023-07-07T11:31:00,mnr,33.69
2023-07-07T11:32:00,mnr,32.90
2023-07-07T11:33:00,mnr,33.72
2023-07-07T11:34:00,mnr,33.37
2023-07-07T11:35:00,mnr,33.55
2023-07-07T11:36:00,mnr,33.60
2023-07-07T11:37:00,mnr,33.55
2023-07-07T11:38:00,mnr,33.54
2023-07-07T11:39:00,mnr,33.96
2023-07-07T11:40:00,mnr,32.94
2023-07-07T11:41:00,mnr,33.46
2023-07-07T11:42:00,mnr,34.61
2023-07-07T11:43:00,mnr,36.06
2023-07-07T11:44:00,mnr,39.28
2023-07-07T11:45:00,mnr,45.99
2023-07-07T11:46:00,mnr,54.03
2023-07-07T11:47:00,mnr,69.53
2023-07-07T11:48:00,mnr,61.73
2023-07-07T11:49:00,mnr,61.78
2023-07-07T11:50:00,mnr,62.64
2023-07-07T11:51:00,mnr,58.98
2023-07-07T11:52:00,mnr,57.93
2023-07-07T11:53:00,mnr,58.43
2023-07-07T11:54:00,mnr,49.75
2023-07-07T11:55:00,mnr,49.44
2023-07-07T11:56:00,mnr,47.85
2023-07-07T11:57:00,mnr,47.76
2023-07-07T11:58:00,mnr,55.58
2023-07-07T11:59:00,mnr,47.72
2023-07-07T12:00:00,mnr,45.30
2023-07-07T12:01:00,mnr,44.21
2023-07-07T12:02:00,mnr,43.38
2023-07-07T12:03:00,mnr,34.42
2023-07-07T12:04:00,mnr,32.49
2023-07-07T12:05:00,mnr,31.78
2023-07-07T12:06:00,mnr,31.46
2023-07-07T12:07:00,mnr,31.33
2023-07-07T12:08:00,mnr,31.35
2023-07-07T12:09:00,mnr,30.19
2023-07-07T12:10:00,mnr,30.12
2023-07-07T12:11:00,mnr,30.46
2023-07-07T12:12:00,mnr,30.50
2023-07-07T12:13:00,mnr,32.60
2023-07-07T12:14:00,mnr,35.82
2023-07-07T12:15:00,mnr,38.46
2023-07-07T12:16:00,mnr,42.10
2023-07-07T12:17:00,mnr,47.29
2023-07-07T12:18:00,mnr,51.99
2023-07-07T12:19:00,mnr,49.94
2023-07-07T12:20:00,mnr,39.07
2023-07-07T12:21:00,mnr,43.20
2023-07-07T12:22:00,mnr,45.14
2023-07-07T12:23:00,mnr,34.53
2023-07-07T12:24:00,mnr,35.40
2023-07-07T12:25:00,mnr,36.45
2023-07-07T12:26:00,mnr,37.22
2023-07-07T12:27:00,mnr,38.87
2023-07-07T12:28:00,mnr,39.52
2023-07-07T12:29:00,mnr,40.30
2023-07-07T12:30:00,mnr,40.99
2023-07-07T12:31:00,mnr,41.71
2023-07-07T12:32:00,mnr,42.28
2023-07-07T12:33:00,mnr,44.10
2023-07-07T12:34:00,mnr,55.35
2023-07-07T12:35:00,mnr,48.28
2023-07-07T12:36:00,mnr,45.58
2023-07-07T12:37:00,mnr,37.30
2023-07-07T12:38:00,mnr,38.79
2023-07-07T12:39:00,mnr,35.81
2023-07-07T12:40:00,mnr,29.38
2023-07-07T12:41:00,mnr,30.15
2023-07-07T12:42:00,mnr,30.42
2023-07-07T12:43:00,mnr,31.08
2023-07-07T12:44:00,mnr,30.28
2023-07-07T12:45:00,mnr,31.10
2023-07-07T12:46:00,mnr,32.19
2023-07-07T12:47:00,mnr,33.11
2023-07-07T12:48:00,mnr,33.29
2023-07-07T12:49:00,mnr,33.18
2023-07-07T12:50:00,mnr,32.55
2023-07-07T12:51:00,mnr,32.17
2023-07-07T12:52:00,mnr,31.05
2023-07-07T12:53:00,mnr,30.40
2023-07-07T12:54:00,mnr,30.72
2023-07-07T12:55:00,mnr,31.86
2023-07-07T12:56:00,mnr,33.20
2023-07-07T12:57:00,mnr,33.83
2023-07-07T12:58:00,mnr,34.73
2023-07-07T12:59:00,mnr,31.59
2023-07-07T13:00:00,mnr,31.40
2023-07-07T13:01:00,mnr,33.27
2023-07-07T13:02:00,mnr,29.08
2023-07-07T13:03:00,mnr,27.00
2023-07-07T13:04:00,mnr,24.37
2023-07-07T13:05:00,mnr,21.66
2023-07-07T13:06:00,mnr,21.57
2023-07-07T13:07:00,mnr,21.60
2023-07-07T13:08:00,mnr,21.42
2023-07-07T13:09:00,mnr,21.53
2023-07-07T13:10:00,mnr,22.44
2023-07-07T13:11:00,mnr,21.91
2023-07-07T13:12:00,mnr,22.21
2023-07-07T13:13:00,mnr,23.35
2023-07-07T13:14:00,mnr,23.14
2023-07-07T13:15:00,mnr,22.48
2023-07-07T13:16:00,mnr,22.78
2023-07-07T13:17:00,mnr,32.89
2023-07-07T13:18:00,mnr,22.64
2023-07-07T13:19:00,mnr,21.39
2023-07-07T13:20:00,mnr,21.62
2023-07-07T13:21:00,mnr,32.86
2023-07-07T13:22:00,mnr,22.86
2023-07-07T13:23:00,mnr,23.13
2023-07-07T13:24:00,mnr,28.90
2023-07-07T13:25:00,mnr,24.16
2023-07-07T13:26:00,mnr,25.53
2023-07-07T13:27:00,mnr,24.89
2023-07-07T13:28:00,mnr,25.94
2023-07-07T13:29:00,mnr,24.94
2023-07-07T13:30:00,mnr,22.24